Location: Drummondville
(45.8830°N, 72.4830°W)
Time: 12:55:22
(UTC-05:00)

N. Korean satellite - Pass Details

Date: 16 November 2017
Orbit: 460 x 515 km, 97.2° (Epoch: 17 November)

Event Time Altitude Azimuth Distance (km) Brightness Sun altitude
Rises 05:48:15 0° 27° (NNE) 2,601 10.4 -11.1°
Reaches altitude 10° 05:50:47 10° 45° (NE) 1,721 9.7 -10.7°
Maximum altitude 05:53:33 20° 93° (E) 1,231 9.7 -10.2°
Drops below altitude 10° 05:56:19 10° 141° (SE) 1,727 10.3 -9.8°
Sets 05:58:51 0° 159° (SSE) 2,612 10.9 -9.4°
